Powrót do katalogu

STARLINK-11721

AktywnyŁącznośćVLEO
NORAD 64127·PAYLOAD·🇺🇸 United States

Wystrzelony May 24, 2025 z Cape Canaveral Space Force Station

Loading…

Następne Przeloty (najbliższe 24 godziny)

TLE

ŚwieżeSource: CelesTrak SupGP

Epoka: Sep 14, 2026, 21:13 UTC

1 64127C 25111E   26257.88451389 -.00007285  00000+0 -56598-4 0  2575
2 64127  43.0007 273.0886 0001619 257.8411 277.9460 15.70836224    19

Śledź STARLINK-11721 w czasie rzeczywistym z AllMySat

Download on the App Store